QPF
0.02 0.03 0.03 0.02 0.02 0.01 0.01 0.01 0.01 0.02 0.02 0.03 0.03 0.02 0.01 0.01 0.01 0.01 0.02 0.03 0.04 0.09 0.08 0.06 0.04 0.02 0.02 0.02 0.02 0.03 0.03 0.03 0.03 0.03 0.03 0.02 0.02 0.02 0.02 0.02 0.02 0.03 0.02 0.02
0.01 0.02 0.03 0.02 0.02 0.01 0.01 0.01 0.01 0.02 0.02 0.02 0.03 0.03 0.01 0.01 0.01 0.01 0.02 0.03 0.04 0.07 0.08 0.09 0.06 0.04 0.03 0.03 0.04 0.04 0.04 0.05 0.04 0.04 0.04 0.03 0.02 0.02 0.03 0.03 0.04 0.03 0.03 0.03
0.02 0.02 0.02 0.02 0.02 0.02 0.01 0.01 0.01 0.01 0.03 0.03 0.03 0.02 0.01 0.01 0.01 0.01 0.02 0.02 0.03 0.04 0.05 0.08 0.09 0.06 0.04 0.04 0.05 0.06 0.04 0.04 0.04 0.05 0.06 0.06 0.05 0.04 0.03 0.02 0.02 0.01 0.01 0.01
0.02 0.02 0.01 0.02 0.02 0.02 0.02 0.01 0.01 0.01 0.02 0.03 0.03 0.03 0.01 0.01 0.01 0.01 0.01 0.01 0.02 0.02 0.03 0.05 0.09 0.09 0.06 0.04 0.05 0.06 0.05 0.04 0.03 0.03 0.05 0.07 0.07 0.05 0.04 0.03 0.02 0.01 0.01 0.01
0.01 0.01 0.01 0.01 0.01 0.01 0.01 0.01 0.01 0.02 0.02 0.03 0.03 0.02 0.01 0.01 0.01 0.01 0.00 0.01 0.01 0.02 0.02 0.02 0.04 0.05 0.05 0.04 0.03 0.03 0.03 0.03 0.03 0.02 0.03 0.05 0.08 0.08 0.08 0.07 0.07 0.06 0.04 0.03
0.01 0.01 0.01 0.01 0.01 0.01 0.01 0.02 0.02 0.02 0.03 0.04 0.02 0.02 0.02 0.01 0.01 0.01 0.01 0.01 0.01 0.02 0.03 0.02 0.02 0.02 0.03 0.03 0.03 0.03 0.02 0.02 0.03 0.02 0.03 0.03 0.04 0.06 0.08 0.09 0.09 0.09 0.08 0.07
0.00 0.00 0.00 0.00 0.01 0.01 0.02 0.03 0.04 0.04 0.04 0.03 0.01 0.01 0.01 0.01 0.01 0.01 0.01 0.01 0.01 0.01 0.02 0.02 0.01 0.01 0.02 0.02 0.02 0.03 0.02 0.02 0.03 0.03 0.04 0.04 0.04 0.04 0.05 0.07 0.08 0.09 0.10 0.10
0.00 0.00 0.00 0.00 0.00 0.01 0.02 0.02 0.03 0.03 0.02 0.01 0.01 0.01 0.01 0.00 0.00 0.00 0.01 0.02 0.01 0.00 0.00 0.01 0.01 0.01 0.01 0.01 0.01 0.02 0.02 0.02 0.02 0.03 0.03 0.03 0.03 0.04 0.06 0.08 0.09 0.10 0.09 0.08
0.00 0.00 0.00 0.00 0.00 0.00 0.01 0.02 0.02 0.02 0.02 0.01 0.01 0.01 0.01 0.01 0.00 0.00 0.01 0.02 0.01 0.01 0.00 0.00 0.01 0.00 0.00 0.00 0.01 0.01 0.02 0.02 0.02 0.02 0.02 0.02 0.02 0.03 0.03 0.04 0.05 0.06 0.07 0.09
0.00 0.00 0.00 0.00 0.00 0.00 0.00 0.01 0.01 0.03 0.02 0.01 0.01 0.01 0.01 0.01 0.01 0.00 0.00 0.01 0.01 0.01 0.01 0.01 0.00 0.00 0.00 0.00 0.00 0.01 0.01 0.01 0.02 0.02 0.02 0.02 0.02 0.02 0.03 0.04 0.05 0.05 0.06 0.07
0.00 0.00 0.00 0.00 0.00 0.00 0.00 0.01 0.01 0.02 0.01 0.01 0.01 0.01 0.01 0.01 0.01 0.01 0.01 0.00 0.01 0.01 0.01 0.01 0.01 0.00 0.00 0.01 0.01 0.00 0.00 0.00 0.01 0.02 0.02 0.02 0.02 0.02 0.03 0.03 0.04 0.05 0.06 0.06
0.00 0.00 0.00 0.00 0.00 0.00 0.00 0.00 0.01 0.02 0.02 0.01 0.01 0.01 0.01 0.01 0.01 0.00 0.01 0.00 0.01 0.01 0.01 0.01 0.01 0.01 0.01 0.01 0.01 0.00 0.00 0.00 0.00 0.01 0.01 0.02 0.02 0.02 0.03 0.03 0.03 0.03 0.04 0.05
0.00 0.00 0.00 0.00 0.00 0.00 0.00 0.00 0.01 0.02 0.02 0.01 0.01 0.01 0.02 0.02 0.01 0.01 0.00 0.00 0.00 0.01 0.01 0.01 0.01 0.01 0.01 0.01 0.00 0.00 0.00 0.00 0.00 0.00 0.00 0.01 0.01 0.02 0.02 0.02 0.02 0.03 0.03 0.03
0.01 0.01 0.00 0.00 0.00 0.00 0.00 0.00 0.00 0.01 0.02 0.01 0.01 0.01 0.02 0.02 0.01 0.01 0.01 0.01 0.00 0.01 0.01 0.01 0.01 0.01 0.01 0.00 0.00 0.00 0.00 0.00 0.00 0.00 0.00 0.01 0.01 0.01 0.02 0.02 0.02 0.03 0.03 0.03
0.00 0.01 0.00 0.00 0.00 0.01 0.01 0.01 0.00 0.00 0.01 0.01 0.00 0.01 0.01 0.01 0.01 0.01 0.01 0.01 0.01 0.01 0.01 0.01 0.01 0.01 0.01 0.00 0.00 0.00 0.00 0.00 0.00 0.00 0.01 0.01 0.01 0.01 0.02 0.02 0.03 0.03 0.03 0.03
0.00 0.00 0.00 0.00 0.00 0.00 0.00 0.00 0.00 0.00 0.00 0.00 0.00 0.01 0.00 0.01 0.01 0.01 0.01 0.01 0.01 0.01 0.01 0.01 0.01 0.01 0.01 0.01 0.01 0.01 0.01 0.01 0.01 0.01 0.01 0.01 0.02 0.02 0.02 0.03 0.03 0.02 0.02 0.02
0.00 0.00 0.01 0.01 0.00 0.00 0.00 0.00 0.00 0.00 0.00 0.01 0.01 0.01 0.01 0.01 0.01 0.01 0.01 0.01 0.01 0.01 0.01 0.01 0.01 0.01 0.01 0.01 0.01 0.01 0.02 0.02 0.02 0.02 0.02 0.02 0.02 0.02 0.02 0.02 0.02 0.02 0.01 0.01
0.01 0.00 0.00 0.02 0.01 0.00 0.00 0.00 0.00 0.00 0.00 0.00 0.00 0.01 0.01 0.01 0.01 0.01 0.01 0.01 0.01 0.01 0.01 0.01 0.01 0.02 0.02 0.02 0.02 0.02 0.02 0.02 0.02 0.02 0.02 0.02 0.02 0.02 0.01 0.01 0.01 0.01 0.01 0.01
0.00 0.00 0.00 0.01 0.01 0.00 0.00 0.00 0.00 0.00 0.00 0.01 0.01 0.01 0.01 0.01 0.01 0.01 0.01 0.01 0.01 0.01 0.01 0.01 0.02 0.02 0.02 0.02 0.02 0.03 0.03 0.02 0.02 0.02 0.01 0.01 0.01 0.01 0.01 0.01 0.00 0.00 0.00 0.00
0.00 0.00 0.00 0.00 0.00 0.00 0.00 0.00 0.00 0.00 0.01 0.01 0.01 0.01 0.01 0.01 0.02 0.01 0.01 0.02 0.01 0.01 0.01 0.01 0.02 0.02 0.02 0.02 0.03 0.02 0.02 0.02 0.02 0.01 0.01 0.01 0.01 0.01 0.00 0.00 0.00 0.00 0.00 0.00
0.00 0.01 0.01 0.00 0.00 0.00 0.00 0.00 0.01 0.00 0.00 0.00 0.00 0.00 0.01 0.01 0.02 0.02 0.02 0.02 0.02 0.02 0.02 0.02 0.02 0.02 0.02 0.03 0.02 0.02 0.02 0.02 0.01 0.01 0.01 0.00 0.00 0.00 0.00 0.00 0.00 0.00 0.00 0.00
0.00 0.00 0.00 0.00 0.01 0.00 0.00 0.00 0.00 0.00 0.00 0.00 0.00 0.00 0.01 0.01 0.01 0.01 0.02 0.02 0.02 0.02 0.02 0.02 0.02 0.02 0.02 0.02 0.02 0.01 0.01 0.01 0.01 0.01 0.00 0.00 0.00 0.00 0.00 0.00 0.00 0.00 0.00 0.00
0.00 0.00 0.00 0.00 0.00 0.00 0.00 0.00 0.00 0.00 0.00 0.00 0.00 0.00 0.00 0.00 0.00 0.00 0.01 0.01 0.01 0.01 0.02 0.02 0.02 0.01 0.01 0.01 0.01 0.01 0.01 0.01 0.01 0.01 0.00 0.00 0.00 0.00 0.00 0.00 0.00 0.00 0.00 0.00
0.00 0.00 0.00 0.00 0.00 0.00 0.00 0.00 0.00 0.00 0.00 0.00 0.00 0.00 0.00 0.00 0.00 0.00 0.00 0.01 0.01 0.01 0.01 0.01 0.01 0.01 0.00 0.00 0.00 0.01 0.01 0.01 0.01 0.00 0.00 0.00 0.00 0.00 0.00 0.00 0.00 0.00 0.00 0.00
0.00 0.00 0.00 0.00 0.00 0.00 0.00 0.00 0.00 0.00 0.00 0.00 0.00 0.00 0.00 0.00 0.00 0.00 0.00 0.00 0.01 0.01 0.01 0.01 0.01 0.01 0.00 0.00 0.00 0.00 0.00 0.00 0.00 0.00 0.00 0.00 0.00 0.00 0.00 0.00 0.00 0.00 0.00 0.00
0.00 0.00 0.00 0.00 0.00 0.00 0.00 0.00 0.00 0.00 0.00 0.00 0.00 0.00 0.00 0.00 0.00 0.00 0.00 0.00 0.00 0.00 0.01 0.01 0.01 0.00 0.00 0.00 0.00 0.00 0.00 0.00 0.00 0.00 0.00 0.00 0.00 0.00 0.00 0.00 0.00 0.00 0.00 0.00
MSLP
1027.82 1028.85 1029.94 1030.99 1031.93 1032.74 1033.38 1033.86 1034.22 1034.49 1034.72 1034.94 1035.16 1035.39 1035.61 1035.81 1035.96 1036.04 1036.07 1036.04 1035.97 1035.90 1035.84 1035.81 1035.82 1035.85 1035.88 1035.89 1035.85 1035.74 1035.55 1035.29 1034.98 1034.66 1034.34 1034.05 1033.81 1033.60 1033.41 1033.22 1033.01 1032.76 1032.46 1032.12
1029.56 1030.41 1031.24 1032.00 1032.66 1033.21 1033.65 1034.00 1034.30 1034.56 1034.81 1035.05 1035.28 1035.48 1035.65 1035.75 1035.79 1035.77 1035.70 1035.61 1035.51 1035.44 1035.41 1035.42 1035.47 1035.54 1035.61 1035.65 1035.65 1035.59 1035.46 1035.29 1035.08 1034.86 1034.64 1034.43 1034.23 1034.03 1033.81 1033.56 1033.28 1032.95 1032.60 1032.23
1031.25 1031.90 1032.48 1032.97 1033.37 1033.69 1033.96 1034.20 1034.43 1034.67 1034.91 1035.13 1035.32 1035.45 1035.51 1035.49 1035.41 1035.29 1035.15 1035.02 1034.93 1034.88 1034.90 1034.97 1035.07 1035.18 1035.26 1035.32 1035.33 1035.30 1035.23 1035.13 1035.03 1034.92 1034.80 1034.68 1034.54 1034.36 1034.12 1033.83 1033.49 1033.11 1032.71 1032.32
1032.75 1033.21 1033.57 1033.84 1034.03 1034.18 1034.32 1034.49 1034.67 1034.87 1035.06 1035.21 1035.30 1035.29 1035.20 1035.03 1034.81 1034.58 1034.38 1034.25 1034.20 1034.24 1034.34 1034.48 1034.64 1034.77 1034.86 1034.91 1034.91 1034.88 1034.83 1034.80 1034.78 1034.77 1034.77 1034.74 1034.67 1034.53 1034.31 1034.01 1033.63 1033.22 1032.80 1032.39
1033.97 1034.26 1034.44 1034.54 1034.60 1034.65 1034.74 1034.87 1035.02 1035.18 1035.29 1035.33 1035.25 1035.05 1034.74 1034.37 1034.00 1033.67 1033.43 1033.33 1033.36 1033.50 1033.71 1033.95 1034.17 1034.34 1034.42 1034.44 1034.40 1034.34 1034.30 1034.30 1034.34 1034.42 1034.52 1034.60 1034.61 1034.54 1034.35 1034.07 1033.70 1033.29 1032.87 1032.48
1034.84 1034.99 1035.05 1035.05 1035.05 1035.09 1035.18 1035.33 1035.48 1035.59 1035.61 1035.48 1035.19 1034.75 1034.20 1033.60 1033.05 1032.61 1032.35 1032.29 1032.41 1032.68 1033.03 1033.38 1033.67 1033.86 1033.94 1033.91 1033.82 1033.72 1033.65 1033.66 1033.74 1033.90 1034.09 1034.26 1034.37 1034.38 1034.26 1034.03 1033.70 1033.32 1032.93 1032.57
1035.37 1035.41 1035.39 1035.37 1035.39 1035.48 1035.64 1035.84 1036.02 1036.09 1036.00 1035.70 1035.17 1034.46 1033.63 1032.80 1032.06 1031.51 1031.22 1031.20 1031.42 1031.81 1032.29 1032.76 1033.13 1033.35 1033.41 1033.34 1033.19 1033.03 1032.93 1032.93 1033.05 1033.26 1033.53 1033.80 1034.01 1034.11 1034.08 1033.92 1033.66 1033.33 1032.99 1032.67
1035.61 1035.58 1035.53 1035.54 1035.63 1035.83 1036.10 1036.39 1036.60 1036.65 1036.45 1035.96 1035.20 1034.23 1033.13 1032.06 1031.14 1030.48 1030.15 1030.15 1030.45 1030.95 1031.54 1032.10 1032.53 1032.78 1032.83 1032.72 1032.52 1032.32 1032.19 1032.19 1032.34 1032.61 1032.95 1033.31 1033.62 1033.81 1033.86 1033.78 1033.59 1033.32 1033.03 1032.75
1035.66 1035.59 1035.55 1035.62 1035.83 1036.15 1036.55 1036.93 1037.18 1037.20 1036.91 1036.27 1035.29 1034.08 1032.75 1031.47 1030.38 1029.62 1029.23 1029.24 1029.59 1030.15 1030.81 1031.43 1031.89 1032.15 1032.19 1032.06 1031.84 1031.61 1031.48 1031.50 1031.68 1032.01 1032.43 1032.87 1033.26 1033.54 1033.66 1033.65 1033.51 1033.30 1033.04 1032.79
1035.64 1035.55 1035.56 1035.71 1036.02 1036.46 1036.96 1037.42 1037.70 1037.70 1037.32 1036.55 1035.41 1034.02 1032.51 1031.07 1029.86 1029.00 1028.57 1028.55 1028.89 1029.47 1030.14 1030.76 1031.22 1031.47 1031.51 1031.37 1031.15 1030.94 1030.84 1030.90 1031.14 1031.53 1032.03 1032.54 1032.99 1033.33 1033.51 1033.54 1033.44 1033.25 1033.01 1032.77
1035.66 1035.59 1035.64 1035.86 1036.25 1036.77 1037.32 1037.81 1038.08 1038.03 1037.58 1036.72 1035.49 1033.99 1032.39 1030.87 1029.59 1028.67 1028.19 1028.13 1028.42 1028.94 1029.56 1030.14 1030.56 1030.78 1030.80 1030.67 1030.48 1030.32 1030.28 1030.42 1030.74 1031.21 1031.77 1032.34 1032.84 1033.21 1033.42 1033.46 1033.37 1033.17 1032.93 1032.67
1035.82 1035.79 1035.89 1036.14 1036.55 1037.06 1037.59 1038.03 1038.24 1038.12 1037.61 1036.69 1035.42 1033.91 1032.30 1030.79 1029.51 1028.58 1028.07 1027.95 1028.16 1028.59 1029.10 1029.58 1029.92 1030.09 1030.10 1029.99 1029.85 1029.77 1029.83 1030.06 1030.47 1031.02 1031.64 1032.25 1032.78 1033.16 1033.36 1033.39 1033.28 1033.07 1032.80 1032.51
1036.19 1036.21 1036.33 1036.56 1036.91 1037.33 1037.74 1038.04 1038.12 1037.89 1037.31 1036.36 1035.12 1033.67 1032.16 1030.73 1029.53 1028.65 1028.14 1027.97 1028.09 1028.39 1028.76 1029.11 1029.34 1029.45 1029.43 1029.36 1029.29 1029.31 1029.47 1029.81 1030.31 1030.93 1031.60 1032.23 1032.76 1033.13 1033.31 1033.32 1033.17 1032.93 1032.63 1032.32
1036.80 1036.86 1036.96 1037.11 1037.32 1037.54 1037.73 1037.80 1037.67 1037.30 1036.63 1035.69 1034.51 1033.20 1031.86 1030.61 1029.56 1028.78 1028.30 1028.11 1028.13 1028.30 1028.53 1028.72 1028.84 1028.88 1028.85 1028.81 1028.82 1028.94 1029.22 1029.66 1030.25 1030.92 1031.61 1032.24 1032.75 1033.09 1033.24 1033.21 1033.05 1032.78 1032.46 1032.13
1037.62 1037.70 1037.74 1037.74 1037.72 1037.67 1037.54 1037.31 1036.92 1036.36 1035.60 1034.66 1033.60 1032.47 1031.35 1030.34 1029.50 1028.87 1028.47 1028.27 1028.23 1028.27 1028.35 1028.41 1028.43 1028.40 1028.37 1028.37 1028.46 1028.68 1029.06 1029.59 1030.24 1030.94 1031.64 1032.25 1032.72 1033.02 1033.14 1033.09 1032.90 1032.64 1032.32 1031.99
1038.59 1038.66 1038.59 1038.39 1038.09 1037.68 1037.19 1036.60 1035.91 1035.13 1034.28 1033.36 1032.42 1031.49 1030.64 1029.89 1029.29 1028.85 1028.55 1028.38 1028.29 1028.24 1028.21 1028.15 1028.09 1028.02 1028.00 1028.05 1028.22 1028.54 1029.01 1029.61 1030.29 1031.00 1031.67 1032.24 1032.66 1032.92 1033.01 1032.94 1032.77 1032.52 1032.23 1031.93
1039.58 1039.60 1039.39 1038.96 1038.34 1037.56 1036.68 1035.72 1034.73 1033.74 1032.79 1031.89 1031.08 1030.37 1029.77 1029.30 1028.94 1028.69 1028.51 1028.38 1028.27 1028.16 1028.04 1027.91 1027.80 1027.72 1027.73 1027.85 1028.11 1028.51 1029.06 1029.70 1030.39 1031.08 1031.71 1032.22 1032.59 1032.81 1032.87 1032.81 1032.66 1032.45 1032.21 1031.94
1040.43 1040.37 1040.00 1039.33 1038.40 1037.27 1036.03 1034.74 1033.48 1032.32 1031.29 1030.42 1029.73 1029.22 1028.86 1028.62 1028.48 1028.39 1028.32 1028.23 1028.12 1027.98 1027.81 1027.65 1027.52 1027.48 1027.54 1027.75 1028.10 1028.59 1029.19 1029.86 1030.55 1031.21 1031.78 1032.23 1032.54 1032.71 1032.76 1032.71 1032.59 1032.43 1032.23 1032.01
1040.94 1040.78 1040.25 1039.36 1038.18 1036.77 1035.25 1033.71 1032.26 1030.97 1029.90 1029.08 1028.51 1028.16 1027.99 1027.95 1027.98 1028.01 1028.01 1027.96 1027.84 1027.68 1027.50 1027.33 1027.24 1027.25 1027.40 1027.70 1028.15 1028.73 1029.39 1030.08 1030.76 1031.37 1031.88 1032.27 1032.52 1032.66 1032.70 1032.66 1032.57 1032.44 1032.28 1032.08
1040.92 1040.66 1040.00 1038.95 1037.59 1036.01 1034.32 1032.65 1031.10 1029.78 1028.73 1027.97 1027.51 1027.29 1027.27 1027.35 1027.47 1027.58 1027.61 1027.57 1027.44 1027.27 1027.09 1026.96 1026.92 1027.02 1027.27 1027.68 1028.24 1028.90 1029.61 1030.33 1030.99 1031.57 1032.02 1032.35 1032.56 1032.67 1032.69 1032.65 1032.58 1032.47 1032.33 1032.13
1040.24 1039.89 1039.14 1038.00 1036.57 1034.93 1033.20 1031.52 1030.00 1028.73 1027.76 1027.11 1026.75 1026.64 1026.70 1026.85 1027.01 1027.13 1027.15 1027.09 1026.95 1026.77 1026.61 1026.52 1026.56 1026.76 1027.13 1027.65 1028.31 1029.06 1029.83 1030.57 1031.23 1031.77 1032.19 1032.48 1032.65 1032.73 1032.73 1032.69 1032.62 1032.51 1032.35 1032.13
1038.86 1038.42 1037.62 1036.47 1035.06 1033.49 1031.86 1030.30 1028.92 1027.79 1026.96 1026.44 1026.19 1026.15 1026.26 1026.43 1026.58 1026.67 1026.66 1026.55 1026.39 1026.21 1026.08 1026.05 1026.17 1026.47 1026.96 1027.60 1028.36 1029.18 1030.00 1030.76 1031.43 1031.96 1032.36 1032.62 1032.77 1032.83 1032.82 1032.77 1032.68 1032.54 1032.34 1032.07
1036.81 1036.31 1035.49 1034.41 1033.12 1031.71 1030.28 1028.95 1027.79 1026.88 1026.23 1025.86 1025.72 1025.75 1025.88 1026.03 1026.15 1026.18 1026.12 1025.98 1025.80 1025.64 1025.54 1025.58 1025.80 1026.20 1026.78 1027.52 1028.36 1029.24 1030.11 1030.89 1031.57 1032.10 1032.49 1032.75 1032.89 1032.95 1032.93 1032.87 1032.75 1032.57 1032.32 1031.98
1034.26 1033.69 1032.91 1031.93 1030.81 1029.64 1028.50 1027.45 1026.58 1025.92 1025.49 1025.27 1025.23 1025.32 1025.46 1025.59 1025.66 1025.65 1025.55 1025.39 1025.22 1025.08 1025.05 1025.17 1025.47 1025.96 1026.63 1027.44 1028.33 1029.26 1030.15 1030.95 1031.63 1032.17 1032.57 1032.84 1033.00 1033.07 1033.06 1032.99 1032.85 1032.64 1032.33 1031.92
1031.43 1030.82 1030.07 1029.23 1028.33 1027.42 1026.58 1025.85 1025.27 1024.88 1024.65 1024.59 1024.65 1024.77 1024.92 1025.02 1025.07 1025.03 1024.93 1024.79 1024.65 1024.58 1024.63 1024.84 1025.23 1025.79 1026.53 1027.38 1028.30 1029.24 1030.13 1030.93 1031.62 1032.17 1032.59 1032.89 1033.08 1033.18 1033.20 1033.14 1032.99 1032.75 1032.41 1031.95
1028.61 1027.95 1027.25 1026.55 1025.86 1025.23 1024.68 1024.24 1023.94 1023.77 1023.73 1023.79 1023.91 1024.07 1024.21 1024.31 1024.35 1024.33 1024.26 1024.18 1024.13 1024.16 1024.31 1024.62 1025.09 1025.73 1026.50 1027.37 1028.29 1029.21 1030.08 1030.87 1031.55 1032.11 1032.55 1032.89 1033.13 1033.28 1033.34 1033.31 1033.18 1032.94 1032.58 1032.10
Thickness
5544 5538 5529 5530 5535 5538 5534 5529 5526 5528 5534 5532 5530 5532 5539 5541 5541 5541 5542 5543 5545 5547 5549 5552 5555 5558 5561 5562 5564 5566 5568 5569 5569 5569 5568 5568 5566 5565 5564 5564 5563 5562 5561 5560
5533 5525 5526 5531 5534 5531 5528 5522 5518 5521 5527 5527 5523 5526 5533 5536 5536 5537 5536 5536 5538 5539 5541 5544 5546 5548 5550 5553 5555 5557 5558 5559 5560 5560 5559 5558 5557 5555 5554 5554 5553 5552 5551 5550
5520 5518 5526 5528 5525 5526 5521 5518 5516 5516 5517 5520 5519 5524 5528 5532 5532 5533 5531 5531 5530 5532 5533 5535 5537 5538 5540 5543 5545 5547 5548 5549 5550 5551 5550 5549 5548 5546 5545 5544 5543 5542 5540 5539
5512 5514 5519 5519 5517 5520 5517 5518 5517 5515 5510 5507 5511 5510 5523 5523 5524 5527 5526 5523 5524 5526 5527 5528 5529 5531 5532 5534 5536 5537 5539 5540 5541 5542 5542 5540 5538 5537 5536 5534 5532 5531 5529 5528
5506 5509 5511 5512 5511 5514 5513 5516 5514 5513 5507 5502 5503 5501 5512 5516 5522 5524 5523 5521 5520 5520 5521 5522 5523 5524 5525 5526 5527 5528 5529 5530 5531 5532 5531 5530 5528 5527 5526 5524 5522 5520 5518 5517
5504 5507 5506 5506 5509 5511 5512 5512 5510 5503 5498 5498 5502 5499 5507 5510 5519 5522 5521 5518 5516 5516 5515 5516 5516 5517 5518 5518 5519 5519 5520 5521 5521 5521 5521 5519 5518 5516 5514 5513 5512 5509 5507 5505
5499 5502 5501 5503 5506 5507 5506 5499 5488 5486 5475 5485 5498 5499 5504 5517 5518 5517 5516 5512 5510 5509 5509 5509 5509 5510 5510 5510 5511 5511 5512 5512 5513 5512 5511 5509 5508 5506 5505 5503 5501 5499 5496 5494
5493 5495 5496 5497 5498 5498 5499 5495 5484 5482 5479 5483 5491 5494 5509 5517 5515 5513 5510 5507 5505 5503 5503 5503 5503 5503 5503 5503 5503 5503 5503 5503 5503 5503 5501 5500 5498 5496 5495 5493 5491 5488 5485 5483
5487 5489 5494 5496 5497 5497 5495 5486 5487 5474 5462 5468 5484 5492 5507 5513 5511 5508 5505 5503 5500 5498 5497 5497 5497 5497 5497 5497 5496 5496 5495 5495 5494 5493 5492 5490 5488 5486 5485 5483 5480 5477 5474 5472
5486 5482 5488 5491 5495 5493 5491 5485 5473 5466 5467 5473 5487 5495 5501 5510 5508 5506 5501 5498 5496 5494 5492 5492 5491 5490 5490 5490 5490 5489 5488 5487 5486 5485 5483 5481 5478 5476 5474 5472 5469 5466 5463 5460
5483 5476 5480 5484 5484 5486 5485 5482 5474 5464 5462 5467 5474 5497 5508 5506 5504 5502 5499 5496 5493 5491 5489 5487 5486 5486 5485 5484 5483 5482 5480 5479 5477 5475 5473 5471 5468 5466 5464 5461 5459 5456 5453 5450
5478 5468 5466 5476 5479 5480 5481 5481 5475 5469 5460 5461 5469 5490 5509 5503 5501 5498 5495 5493 5490 5488 5485 5483 5481 5480 5478 5477 5476 5474 5472 5471 5469 5467 5464 5461 5459 5457 5454 5451 5448 5445 5442 5439
5478 5466 5466 5480 5476 5473 5473 5475 5473 5465 5458 5452 5456 5488 5504 5499 5497 5495 5492 5488 5486 5484 5481 5479 5476 5474 5473 5472 5470 5468 5466 5464 5462 5459 5456 5453 5450 5447 5445 5442 5438 5435 5431 5427
5476 5461 5467 5483 5483 5472 5468 5470 5468 5461 5450 5450 5464 5483 5497 5496 5492 5491 5488 5485 5482 5479 5478 5476 5473 5471 5469 5467 5464 5462 5460 5457 5454 5451 5448 5445 5442 5439 5436 5432 5428 5424 5419 5416
5469 5456 5453 5457 5460 5460 5462 5466 5464 5460 5460 5460 5476 5477 5492 5493 5490 5488 5485 5481 5480 5478 5476 5474 5471 5468 5464 5462 5459 5456 5453 5450 5447 5443 5440 5437 5434 5430 5426 5422 5417 5413 5408 5404
5459 5450 5446 5450 5456 5453 5457 5466 5464 5463 5462 5462 5467 5476 5491 5487 5485 5483 5481 5479 5477 5476 5473 5471 5467 5464 5461 5458 5455 5451 5447 5444 5440 5437 5433 5430 5425 5421 5416 5412 5407 5403 5398 5393
5447 5442 5443 5447 5440 5448 5460 5477 5471 5467 5466 5468 5472 5487 5488 5486 5484 5481 5479 5477 5475 5473 5470 5467 5463 5460 5457 5453 5450 5446 5442 5438 5433 5429 5425 5421 5417 5412 5407 5403 5398 5393 5388 5383
5442 5433 5422 5422 5438 5466 5495 5490 5478 5474 5476 5473 5479 5482 5483 5484 5482 5479 5476 5474 5472 5470 5467 5463 5459 5455 5452 5448 5443 5439 5435 5430 5425 5421 5417 5413 5408 5403 5398 5393 5388 5384 5379 5374
5443 5433 5413 5413 5427 5443 5479 5482 5473 5470 5478 5482 5479 5481 5479 5477 5474 5475 5476 5473 5470 5467 5463 5459 5454 5450 5446 5441 5437 5432 5427 5422 5418 5414 5410 5405 5400 5395 5390 5385 5380 5375 5370 5365
5431 5427 5412 5404 5427 5449 5497 5487 5477 5477 5480 5490 5480 5479 5475 5471 5466 5474 5476 5469 5465 5460 5456 5452 5448 5443 5439 5434 5429 5424 5420 5415 5411 5408 5403 5398 5392 5387 5382 5377 5372 5366 5361 5356
5415 5411 5407 5401 5410 5442 5476 5474 5472 5472 5490 5494 5481 5477 5472 5467 5472 5472 5469 5463 5459 5454 5450 5446 5441 5437 5433 5428 5423 5418 5414 5410 5406 5401 5395 5390 5385 5379 5374 5369 5363 5357 5351 5346
5424 5410 5404 5398 5408 5452 5474 5463 5469 5483 5488 5485 5479 5474 5469 5467 5466 5463 5460 5456 5451 5447 5443 5439 5434 5430 5426 5421 5416 5412 5408 5405 5398 5393 5387 5382 5376 5371 5366 5359 5353 5347 5342 5336
5436 5445 5437 5441 5467 5481 5470 5472 5477 5475 5475 5475 5471 5469 5464 5461 5459 5456 5453 5449 5445 5441 5437 5432 5427 5424 5419 5414 5409 5405 5402 5396 5390 5384 5378 5373 5368 5362 5356 5350 5344 5337 5331 5326
5439 5440 5438 5437 5461 5467 5465 5464 5466 5465 5465 5467 5464 5461 5457 5454 5453 5449 5446 5443 5439 5435 5430 5425 5420 5416 5412 5406 5402 5398 5394 5388 5382 5376 5371 5365 5359 5353 5346 5340 5335 5328 5322 5317
5452 5436 5435 5440 5456 5457 5463 5465 5467 5463 5460 5456 5455 5453 5450 5448 5446 5443 5441 5437 5432 5429 5423 5418 5413 5410 5406 5400 5394 5390 5384 5379 5373 5368 5362 5356 5350 5344 5338 5331 5325 5320 5316 5309
5455 5450 5449 5467 5470 5463 5474 5474 5466 5459 5456 5454 5451 5448 5445 5442 5440 5438 5434 5430 5426 5421 5416 5410 5405 5401 5397 5392 5387 5382 5376 5370 5364 5359 5353 5347 5340 5334 5328 5322 5316 5312 5306 5301